Dewpoint
51 51 50 49 49 47 44 37 29 34 33 26 24 22 20 24 12 13 12 13 13 12 11 14 17 15 15 18 17 20 23 23 24 22 20 21 20 22 24 25 33 27 28 40
51 51 50 49 48 47 42 37 30 35 34 25 19 21 16 16 13 15 13 11 12 14 16 19 19 20 16 18 18 24 25 25 22 26 23 23 21 20 23 31 38 35 27 29
51 51 50 49 48 47 44 39 26 28 31 29 25 24 22 18 15 13 17 13 13 12 17 19 21 22 18 22 21 56 42 35 31 20 27 31 25 22 20 26 28 26 23 42
50 50 49 49 48 46 44 39 31 32 26 23 25 26 28 25 18 19 19 19 14 15 20 18 19 21 26 19 42 32 35 41 33 25 26 27 28 25 21 19 25 23 29 34
50 49 49 49 48 46 42 37 36 37 35 37 36 33 24 27 26 21 20 17 16 18 25 24 24 22 28 28 28 34 36 39 37 31 27 25 26 26 23 18 18 21 22 46
48 47 48 48 48 44 39 40 39 37 36 33 31 31 31 25 28 28 20 24 20 20 23 23 24 23 35 34 34 38 40 39 42 33 29 27 27 26 28 23 23 23 35 48
46 46 46 48 47 46 40 41 40 36 28 26 25 32 27 28 30 29 27 22 28 32 37 37 32 29 34 37 39 39 47 49 41 34 36 29 34 42 40 36 27 26 52 51
45 44 44 46 47 47 40 42 40 38 33 32 35 37 40 39 37 31 31 28 32 38 36 34 35 31 35 35 35 38 47 46 39 35 32 32 38 42 39 37 31 33 44 55
44 44 44 45 46 47 40 41 43 40 36 32 38 37 40 38 38 36 32 35 38 36 33 31 35 32 32 30 32 36 37 51 40 40 32 30 36 40 42 42 34 48 47 55
43 44 44 44 44 46 41 40 44 40 36 34 40 37 42 40 44 42 42 38 35 36 30 29 28 27 31 28 30 35 36 39 36 32 33 34 42 44 43 35 45 52 57 55
44 44 44 43 44 44 40 38 43 38 35 34 34 34 36 37 41 47 49 43 38 35 30 27 25 26 29 37 40 40 38 38 34 36 35 33 42 40 38 56 56 57 60 60
42 44 44 44 43 44 42 37 38 38 36 34 36 35 34 32 38 38 48 46 47 42 38 36 37 37 39 46 35 43 43 45 42 48 48 55 56 57 58 57 57 59 60 58
43 43 43 43 43 43 41 36 39 39 36 33 31 28 34 33 33 32 34 43 52 53 47 40 40 43 44 45 45 48 51 54 52 48 48 56 54 56 56 56 56 58 57 56
42 42 42 43 43 43 42 37 38 39 35 31 28 32 34 34 35 37 37 38 42 46 41 38 37 37 43 40 44 42 46 49 47 49 55 55 56 53 56 56 56 55 55 55
42 42 42 42 43 44 42 39 39 41 37 34 33 34 32 32 36 36 38 40 43 38 35 35 34 37 40 40 39 37 41 44 47 42 57 58 57 58 56 56 55 55 54 54
43 43 43 43 43 43 40 40 41 41 40 37 32 35 36 37 36 37 38 38 40 38 36 37 37 41 41 35 34 42 50 53 57 54 56 59 58 60 60 54 54 53 55 55
44 44 45 45 44 41 40 41 43 45 43 37 35 33 34 34 35 34 34 39 36 36 35 37 36 39 41 34 32 38 44 47 50 54 51 53 51 55 58 55 54 54 54 54
45 46 47 46 45 44 40 42 45 45 41 40 36 36 36 37 37 33 32 32 35 35 33 35 37 38 40 35 38 38 41 44 45 45 52 53 50 56 55 55 53 53 53 54
46 45 45 46 45 45 47 48 47 45 43 40 37 33 39 37 37 40 39 36 29 30 30 30 33 33 39 38 41 41 41 44 43 46 50 54 51 56 55 53 54 53 53 53
46 42 43 46 42 49 48 43 44 44 41 40 35 33 32 33 36 39 44 35 31 29 29 28 31 32 38 39 40 44 45 43 43 42 43 46 54 55 53 54 53 53 53 53
37 37 38 40 47 40 42 42 41 41 38 37 36 36 38 38 36 38 43 40 36 32 31 27 28 27 35 40 42 46 45 45 45 43 45 46 52 54 53 53 53 53 53 53
38 40 40 39 39 41 40 39 38 36 37 39 38 43 43 40 44 44 45 40 38 32 31 29 27 32 39 32 36 41 43 43 44 42 44 44 50 54 53 53 53 53 53 53
40 41 39 35 37 35 33 31 33 38 41 42 44 44 43 47 43 44 45 40 35 35 35 30 29 43 37 36 32 39 41 39 40 40 40 42 52 53 54 54 53 53 52 50
35 36 33 34 34 32 33 35 38 41 39 40 37 40 45 49 46 43 39 40 41 38 33 33 49 51 51 49 37 39 40 40 37 40 45 52 53 53 53 53 53 51 50 50
31 29 30 29 30 31 32 34 35 38 38 37 37 40 47 45 43 44 40 37 36 37 41 47 51 53 52 53 52 52 44 46 50 51 51 53 53 54 53 52 51 50 48 49
29 30 26 27 28 30 33 35 35 37 37 37 45 42 40 38 41 40 38 36 38 41 48 52 53 53 54 55 53 52 54 55 55 54 54 54 53 51 51 50 49 50 51 51
29 27 24 21 23 32 33 35 35 38 36 42 42 38 38 41 40 38 42 43 44 47 51 53 54 53 54 55 55 55 55 55 55 55 53 52 51 50 50 49 50 51 51 51
Lifted_Index
13 14 14 15 15 14 12 9 8 7 7 8 8 8 8 7 6 6 6 6 5 4 2 1 0 0 -0 -1 -1 -1 -0 1 1 0 0 0 0 -0 -0 -0 -0 -0 -1 -1
13 13 14 14 14 14 12 9 7 7 7 7 8 7 7 7 6 6 6 6 5 4 3 2 2 1 0 -0 -0 -0 -0 1 1 0 -0 0 0 -0 -0 -0 -0 -0 -1 -1
12 12 13 14 14 13 11 8 6 6 6 7 7 7 6 6 6 6 6 6 6 5 4 4 3 2 1 0 0 0 0 0 0 0 -0 -0 -0 -0 -0 -0 -0 -0 -1 -1
11 12 12 13 13 12 10 7 5 5 6 6 6 6 5 5 5 6 6 6 6 5 5 4 4 3 1 1 1 1 1 0 0 0 0 -0 -0 -0 -0 -1 -1 -1 -1 -1
11 11 12 12 11 10 8 6 5 5 5 5 5 5 5 4 4 5 5 6 5 5 4 4 4 3 2 1 1 1 0 -0 -0 0 0 -0 -0 -1 -1 -1 -1 -1 -1 -1
11 11 11 11 11 9 8 6 6 6 5 4 4 3 3 4 4 4 4 4 4 4 4 4 4 3 2 1 0 -0 -0 -1 -1 -1 -0 -0 -0 -1 -1 -1 -1 -1 -2 -3
11 11 11 11 11 10 8 7 7 6 4 4 3 2 2 2 3 3 3 3 3 3 3 3 3 3 2 1 0 -0 -1 -2 -2 -2 -1 -1 -1 -1 -1 -1 -1 -1 -3 -4
11 11 11 11 11 11 9 8 7 6 4 3 2 2 1 1 1 2 2 2 3 3 3 3 3 3 2 2 1 0 -1 -2 -2 -2 -2 -1 -1 -1 -1 -1 -1 -2 -4 -5
12 12 12 11 11 11 10 8 8 6 4 3 2 2 1 0 0 1 1 2 3 3 3 3 3 2 2 2 2 1 -0 -1 -1 -1 -1 -1 -2 -2 -2 -2 -2 -3 -4 -5
12 12 12 12 11 11 10 9 8 7 5 3 2 2 1 0 -0 -0 0 1 2 2 3 3 2 2 1 1 1 0 0 -0 -0 -0 -1 -1 -2 -3 -2 -2 -3 -4 -4 -4
12 12 12 12 12 11 11 9 9 8 6 4 3 3 2 1 1 0 -0 0 1 1 2 2 1 1 -1 -1 -1 -1 -1 -1 -1 -1 -1 -2 -3 -3 -3 -3 -4 -4 -4 -4
12 12 12 12 12 12 11 10 9 8 6 4 3 3 3 2 2 2 1 0 0 0 0 1 0 -0 -1 -2 -2 -1 -1 -1 -2 -2 -2 -3 -4 -4 -4 -4 -4 -4 -3 -3
12 12 12 12 12 12 12 11 10 8 6 4 3 2 2 2 3 3 2 2 1 0 0 1 1 0 -0 -1 -1 -1 -1 -1 -2 -2 -2 -3 -4 -5 -5 -4 -3 -3 -3 -2
12 12 12 12 12 12 12 11 10 9 6 4 2 1 1 2 2 3 3 3 2 1 1 1 1 1 1 0 0 -0 -0 -1 -1 -1 -1 -1 -3 -5 -5 -4 -3 -2 -2 -1
12 12 12 12 12 12 11 10 9 9 7 4 2 1 1 1 2 2 3 3 2 2 1 1 1 1 1 1 1 1 0 -0 -1 -1 -1 -2 -3 -4 -4 -3 -3 -2 -1 -0
12 12 12 12 12 11 9 8 8 8 7 6 3 1 1 1 2 2 2 2 2 2 1 1 1 1 2 2 2 1 0 -0 -0 -1 -2 -2 -2 -2 -2 -2 -2 -2 -1 -0
11 11 11 11 11 10 8 7 8 8 8 6 4 2 1 1 1 2 2 2 1 1 1 1 1 1 2 2 2 1 1 1 0 -1 -1 -1 -1 -2 -2 -1 -1 -1 -1 -0
11 10 9 9 9 8 8 8 8 8 8 6 4 2 1 1 1 1 1 1 1 1 1 1 1 1 2 2 2 1 1 1 1 0 -0 -0 -0 -1 -2 -2 -2 -1 -1 -0
10 9 7 7 7 7 7 7 8 8 7 6 4 2 1 1 1 0 0 1 1 1 1 1 1 1 1 1 1 0 0 1 0 0 0 -0 -1 -2 -3 -3 -3 -1 -1 -0
8 7 6 6 6 7 6 6 6 6 5 5 4 2 2 1 1 -0 -0 0 0 1 1 1 1 1 1 0 -0 -1 -1 -0 -0 0 -0 -1 -2 -3 -4 -4 -3 -2 -1 -0
8 7 6 6 6 6 5 5 4 4 4 3 3 2 1 1 0 -0 -0 -0 -0 0 1 1 1 1 1 0 -0 -1 -1 -1 -0 -0 -1 -2 -3 -3 -3 -3 -2 -1 -1 -0
8 8 7 6 6 5 4 4 3 3 2 2 1 1 1 1 0 -0 -0 -0 0 0 0 0 0 0 0 0 -0 -1 -1 -1 -1 -1 -1 -2 -3 -3 -3 -2 -2 -1 -0 0
7 7 7 6 5 5 4 3 2 2 1 1 1 1 0 0 0 -0 -0 -0 -0 -0 -0 -0 -1 -1 -1 -1 -1 -1 -1 -1 -0 -0 -1 -2 -3 -3 -3 -2 -2 -1 0 1
6 6 6 5 5 4 4 3 2 2 1 1 1 1 0 -0 -0 0 0 -0 -0 -0 -1 -1 -1 -2 -2 -2 -2 -1 -1 -0 -0 -1 -1 -2 -3 -3 -2 -1 -1 -0 1 1
6 6 6 5 4 4 4 3 3 2 2 2 2 2 1 0 0 0 0 -0 -0 -0 -1 -1 -1 -1 -2 -3 -3 -3 -2 -1 -2 -2 -2 -2 -2 -2 -1 -1 -0 0 1 2
6 6 5 5 4 4 4 4 3 3 3 3 2 2 2 1 1 0 0 0 0 0 -0 -1 -0 -1 -1 -3 -4 -4 -3 -3 -3 -2 -2 -1 -1 -0 -0 -0 1 1 2 3
6 6 5 5 5 4 4 4 4 4 3 3 2 2 2 2 1 0 -0 0 1 1 0 -0 -0 -1 -1 -2 -3 -4 -4 -3 -2 -2 -1 -0 0 0 0 0 1 3 4 4